www.pogodaiklimat.ru

Погода и климат >> Архив погоды >> Филиппины >> Алабат


ПОГОДА на Алабате

  • Прогноз погоды на Алабате
  • Монитор погоды на Алабате

АРХИВ ПОГОДЫ на Алабате

Время (UTC), дата Ветер
(напр.,м/с)
 
Видим.   Явления Облачность Т
(С)
Тd
(С)
f
(%)
Тe
(С)
Тes
(С)
Комфортность P
(гПа)
Po
(гПа)
Тmin
(С)
Tmax
(С)
R
(мм)
R24
(мм)
S
(см)
12 17.06 штиль 0 20 км гроза без осадков 9/5 500 м
[Cu med, cong Ac inh Cs]
+27.1 +25.7 92 +40 +40 очень
душно
1009.6 1009.0 +34.0 7
15 17.06 штиль 0 20 км 9/5 540 м
[Cu med, cong Ac As]
+27.0 +25.4 91 +39 +39 очень
душно
1010.6 1010.0
18 17.06 штиль 0 25 км 3/3 540 м
[Cu med, cong Ci fib]
+26.0 +24.7 93 +37 +37 очень
душно
1009.7 1009.1
21 17.06 СВ 1 20 км 9/5 540 м
[Cu med, cong Ac As]
+25.8 +24.5 93 +36 +36 очень
душно
1009.6 1009.0
00 18.06 штиль 0 50 км ?/? 1010.6 1010.0 +24.3 8
03 18.06 ЮЗ 2 22 км 8/5 540 м
[Cu med, cong Ac As]
+31.0 +26.4 77 +47 +53 опасность
перегрева
1010.4 1009.8
06 18.06 С 2 22 км 5/5 540 м
[Cu med, cong Ci fib]
+32.8 +24.8 63 +46 +54 опасность
перегрева
1008.6 1008.0
09 18.06 ЮЗ 1 20 км 10/5 540 м
[Cu med, cong Ac As]
+30.5 +26.5 79 +47 +47 опасность
перегрева
1007.7 1007.1
12 18.06 С 1 20 км 9/5 540 м
[Cu med, cong Ac As]
+28.2 +26.6 91 +44 +44 опасность
перегрева
1008.7 1008.1 +33.7
15 18.06 штиль 0 20 км 4/4 540 м
[Cu med, cong Ci fib]
+27.0 +25.4 91 +39 +39 очень
душно
1010.6 1010.0
18 18.06 штиль 0 22 км 3/3 540 м
[Cu med, cong Ci fib]
+26.0 +24.7 93 +37 +37 очень
душно
1009.7 1009.1
21 18.06 штиль 0 25 км 1/1 540 м
[Cu hum]
+26.2 +24.6 91 +37 +37 очень
душно
1008.3 1007.7
00 19.06 ЮЗ 1 22 км 6/4 540 м
[Cu med, cong Ac As]
+22.9 +26.2 100 +32 +36 очень
душно
1008.5 1007.9 +25.0
03 19.06 Ю 2 25 км 3/3 540 м
[Cu med, cong Ci fib]
+31.7 +25.6 70 +46 +61 опасность
перегрева
1008.5 1007.9
06 19.06 С 1 22 км 8/5 540 м
[Cu med, cong Ac As]
+32.9 +25.9 67 +49 +54 опасность
перегрева
1006.6 1006.0
09 19.06 СВ 2 20 км 6/4 540 м
[Cu med, cong Ac As]
+31.2 +25.6 72 +46 +47 опасность
перегрева
1005.7 1005.1
12 19.06 З 1 20 км 10/5 540 м
[Cu med, cong Ac As]
+29.9 +26.6 83 +46 +46 опасность
перегрева
1007.2 1006.6 +34.0
15 19.06 штиль 0 20 км зарница 9/5 500 м
[Cb cap Ac As]
+28.8 +26.5 87 +44 +44 опасность
перегрева
1008.0 1007.4
18 19.06 штиль 0 18 км дождь {гроза} 10/5 540 м
[Cu med, cong Ac As]
+25.8 +24.5 93 +36 +36 очень
душно
1007.7 1007.1 29
21 19.06 штиль 0 20 км {гроза, дождь} 4/4 540 м
[Cu med, cong Ci fib]
+25.9 +24.4 91 +36 +36 очень
душно
1007.7 1007.0 9
00 20.06 штиль 0 25 км {гроза, дождь} 1/1 540 м
[Cu hum Ci fib]
+29.0 +26.8 88 +45 +54 опасность
перегрева
1008.6 1008.0 +24.4 35
03 20.06 штиль 0 22 км 4/4 540 м
[Cu med, cong Ci fib]
+31.9 +25.5 69 +46 +63 опасность
перегрева
1008.4 1007.8
06 20.06 ЮЗ 1 20 км 10/5 500 м
[Cb cap Ac As]
+31.8 +26.4 73 +48 +51 опасность
перегрева
1006.9 1006.3
09 20.06 З 1 20 км {гроза} 9/5 540 м
[Cu med, cong Ac As]
+31.5 +27.0 77 +49 +50 опасность
перегрева
1006.6 1006.0
12 20.06 В 1 20 км {гроза} 8/4 540 м
[Cu med, cong Ac As]
+29.3 +26.3 84 +45 +45 опасность
перегрева
1007.6 1007.0 +33.5
15 20.06 В 1 20 км 3/3 540 м
[Cu med, cong Ci fib]
+27.3 +25.9 92 +41 +41 опасность
перегрева
1008.6 1008.0
18 20.06 штиль 0 20 км 3/3 540 м
[Cu med, cong Ci fib]
+26.5 +25.2 93 +38 +38 очень
душно
1007.7 1007.1
21 20.06 штиль 0 25 км 1/1 540 м
[Cu hum]
+26.0 +24.7 93 +37 +37 очень
душно
1007.6 1007.0
00 21.06 ЮВ 1 22 км 4/4 540 м
[Cu med, cong Ci fib]
+29.8 +26.8 84 +46 +52 опасность
перегрева
1008.3 1007.7 +24.5
03 21.06 Ю 2 25 км 1/1 540 м
[Cu hum]
+32.0 +26.9 74 +49 +68 опасность
перегрева
1008.3 1007.7
06 21.06 Ю 2 25 км 3/3 540 м
[Cu med, cong]
+33.2 +26.2 67 +49 +61 опасность
перегрева
1006.6 1006.0
09 21.06 Ю 1 20 км 9/5 540 м
[Cu med, cong Ac As]
+32.0 +26.6 73 +49 +49 опасность
перегрева
1006.1 1005.5
12 21.06 штиль 0 20 км 10/5 540 м
[Cu med, cong Ac As]
+29.0 +24.6 77 +41 +41 опасность
перегрева
1007.6 1007.0 +34.0
15 21.06 В 1 20 км 3/3 540 м
[Cu med, cong Ci fib]
+27.3 +25.9 92 +41 +41 опасность
перегрева
1008.6 1008.0
18 21.06 штиль 0 20 км 3/3 540 м
[Cu med, cong Ci fib]
+25.8 +24.5 93 +36 +36 очень
душно
1007.7 1007.1
21 21.06 штиль 0 25 км 1/1 540 м
[Cu hum]
+26.0 +24.7 93 +37 +37 очень
душно
1007.6 1007.0
00 22.06 ЮЗ 1 25 км 1/1 540 м
[Cu hum]
+30.1 +26.5 81 +46 +54 опасность
перегрева
1007.1 1006.5 +24.5
03 22.06 ЮЗ 1 25 км 3/3 540 м
[Cu med, cong]
+32.8 +24.9 63 +46 +63 опасность
перегрева
1007.3 1006.7
06 22.06 З 1 22 км 4/4 540 м
[Cu med, cong Ci fib]
+34.0 +26.2 64 +50 +62 опасность
перегрева
1005.6 1005.0
09 22.06 ЮЗ 1 25 км 3/3 540 м
[Cu med, cong Ci fib]
+32.5 +26.7 72 +50 +52 опасность
перегрева
1005.1 1004.5
12 22.06 СВ 1 20 км 9/5 540 м
[Cu med, cong Ac As]
+29.0 +26.4 86 +44 +44 опасность
перегрева
1006.9 1006.3 +34.7
15 22.06 В 1 20 км 3/3 540 м
[Cu med, cong Ci fib]
+27.5 +26.2 93 +42 +42 опасность
перегрева
1007.6 1007.0
18 22.06 В 1 20 км 3/3 540 м
[Cu med, cong Ci fib]
+26.9 +25.4 92 +39 +39 очень
душно
1006.6 1006.0
21 22.06 В 1 25 км 1/1 540 м
[Cu hum]
+26.5 +25.2 93 +38 +38 очень
душно
1006.5 1005.9
00 23.06 З 3 25 км 1/1 540 м
[Cu hum]
+30.0 +26.4 81 +46 +51 опасность
перегрева
1007.0 1006.4 +25.3
03 23.06 З 2 25 км 6/3 540 м
[Cu med, cong Ci fib]
+32.8 +26.6 70 +50 +63 опасность
перегрева
1006.9 1006.3
06 23.06 ЮЗ 2 25 км 6/3 540 м
[Cu med, cong Ci fib]
+33.1 +26.8 70 +51 +61 опасность
перегрева
1005.5 1004.9
09 23.06 ЮЗ 3 25 км 8/3 540 м
[Cu med, cong Ci sp]
+32.0 +25.4 68 +46 +47 опасность
перегрева
1005.6 1005.0
12 23.06 ЮЗ 2 25 км 8/3 540 м
[Cu med, cong Ci sp]
+29.6 +25.0 76 +42 +42 опасность
перегрева
1007.2 1006.6 +34.0
15 23.06 штиль 0 25 км 8/3 540 м
[Cu med, cong Ci sp]
+28.9 +24.8 79 +41 +41 опасность
перегрева
1008.4 1007.9
18 23.06 штиль 0 22 км 9/4 540 м
[Cu med, cong Ac As]
+27.0 +24.7 87 +38 +38 очень
душно
1007.4 1006.8
21 23.06 штиль 0 20 км 10/4 540 м
[Cu med, cong Ac As]
+28.0 +25.4 86 +41 +41 опасность
перегрева
1007.6 1007.0
00 24.06 штиль 0 20 км 10/4 540 м
[Cu med, cong Ac As]
+29.0 +25.3 80 +42 +44 опасность
перегрева
1009.4 1008.8 +25.4
03 24.06 З 2 22 км 9/4 540 м
[Cu med, cong Ac As Ci sp]
+32.0 +26.2 71 +48 +55 опасность
перегрева
1009.1 1008.5

 

Местоположение метеостанции Алабат (Филиппины): широта 14.08 долгота 122.01 высота над уровнем моря 5 м.

В архиве по умолчанию представлена погода на Алабате за последнюю неделю. Архивные данные за месяц целиком и за предыдущие месяцы, начиная с января 2011 года, Вы можете получить, выбрав интересующий диапазон дат из раскрывающегося списка и нажав кнопку "Ввод!".


*Определитесь, кто Вы:
робот инопланетянин человек

Внимание! Время в таблицах - всемирное. Для получения местного времени необходимо прибавить поправку, которая равна 8 ч.

Смотрите также архив погоды в соседних городах и на ближайших метеорологических станциях:

Погода в Тайябасе (Филиппины) (47 км)
Погода в Инфанте (Филиппины) (84 км)
Погода в Танае (Филиппины) (85 км)
Погода на Амбулонге (Филиппины) (104 км)
Погода в Даете (Филиппины) (105 км)
Погода в Калапане (Филиппины) (116 км)
Погода в Аэропорту Ninoy Aquino (Филиппины) (119 км)
Погода в Научном саду (Филиппины) (124 км)
Погода в Маниле (Филиппины) (124 км)
Погода в Сангли Пойнт (Филиппины) (127 км)

Пояснения к столбцам:

Ветер - указаны скорость ветра в м/с - средняя за 10 мин, порывы в срок и между сроками (в фигурных скобках) и направление, откуда дует ветер: С - северный, СВ - северо-восточный, В - восточный, ЮВ - юго-восточный, Ю - южный, ЮЗ - юго-западный, З - западный, СЗ - северо-западный.
Видимость - горизонтальная дальность видимости в метрах или километрах. При видимости от 1 до 10 км при отсутствии осадков обычно наблюдается дымка, при ухудшении видимости до 1 км и менее - туман. В сухую погоду видимость может ухудшаться дымом, пылью или мглою.
Явления - указаны атмосферные явления, наблюдавшиеся в срок или в последний час перед сроком; фигурными скобками обозначены явления, наблюдавшиеся между сроками (за 1-3 часа до срока); квадратными скобками обозначены град или гололедные отложения с указанием их диаметра в мм.
Облачность - указаны через наклонную черту общая и нижняя облачность в баллах и высота нижней границы облаков в метрах; квадратными скобками обозначены формы облаков: Ci - перистые, Cs - перисто-слоистые, Cc - перисто-кучевые, Ac - высококучевые, As - высокослоистые, Sc - слоисто-кучевые, Ns - слоисто-дождевые, Cu - кучевые, Cb - кучево-дождевые. Подробнее классификацию облаков см. в Атласе облаков (PDF).
T - Температура воздуха - температура, измеренная на высоте 2 м над землей.
Td - Температура точки росы - температура, при понижении до которой содержащийся в воздухе водяной пар достигнет насыщения.
f - Относительная влажность воздуха - влажноcть воздуха, измеренная на высоте 2 м над землей.
Te - Эффективная температура - температура, которую ощущает одетый по сезону человек в тени. Характеристика душности погоды. При расчете учитывается влияние влажности воздуха и скорости ветра на теплоощущения человека.
Tes - Эффективная температура на солнце - температура, которую ощущает человек, с поправкой на солнечный нагрев. Характеристика знойности погоды. Зависит от высоты солнца над горизонтом, облачности и скорости ветра. Ночью, в пасмурную погоду, а также при ветре 12 м/с и более поправка равна нулю.
P - Атмосферное давление - приведенное к уровню моря атмосферное давление.
Po - Атмосферное давление - измеренное на уровне метеостанции атмосферное давление.
Tmin - Минимальная температура - минимум температуры воздуха на высоте 2 м над землей.
Tmax - Максимальная температура - максимум температуры воздуха на высоте 2 м над землей.
R - Количество осадков - Количество выпавших осадков за период времени, мм. При наведении курсора мыши на число - период времени, за который выпало указанное количество осадков.
R24 - Количество осадков - Количество выпавших осадков за 24 часа, мм.
S - Снежный покров - Высота снежного покрова, см. При наведении курсора мыши на число - состояние снежного покрова и степень покрытия местности в баллах.